DW1231 Weather Reports


Display with metric or nautical units.
time (UTC)temp
F
wind
direction
speed
MPH
gust
MPH
rain 1hr
in
rain 24hr
in
rain mn
in
humidity
%
barometer
mb
20260903124440 76 123 3.0 3.0 0.00 0.03 0.03 96 1015.3
20260903123441 76 127 5.0 7.0 0.00 0.03 0.03 96 1015.2
20260903122441 76 99 2.0 3.0 0.00 0.03 0.03 96 1015.3
20260903121441 76 173 2.0 2.0 0.00 0.03 0.03 95 1015.0
20260903120441 76 136 4.0 4.0 0.00 0.03 0.03 96 1015.1
20260903115441 76 168 4.0 4.0 0.00 0.03 0.03 96 1015.0
20260903114440 76 130 3.0 3.0 0.00 0.03 0.03 96 1014.8
20260903113440 76 143 4.0 4.0 0.00 0.03 0.03 96 1014.9
20260903112440 76 147 4.0 4.0 0.00 0.03 0.03 95 1014.7
20260903111440 76 136 6.0 8.0 0.00 0.03 0.03 95 1014.8
20260903110441 75 132 3.0 4.0 0.00 0.03 0.03 96 1014.7
20260903105441 75 139 4.0 6.0 0.00 0.03 0.03 95 1014.7
20260903104441 75 123 4.0 4.0 0.00 0.03 0.03 95 1014.5
20260903103441 75 170 2.0 2.0 0.00 0.03 0.03 96 1014.6
20260903102441 75 151 2.0 3.0 0.01 0.03 0.03 95 1014.4
20260903101501 75 152 4.0 6.0 0.01 0.03 0.03 96 1014.4
20260903100441 76 136 6.0 9.0 0.03 0.03 0.03 96 1014.3
20260903095441 76 127 5.0 7.0 0.03 0.03 0.03 96 1014.3
20260903094501 76 178 2.0 2.0 0.03 0.03 0.03 96 1014.3
20260903093442 76 187 2.0 2.0 0.03 0.03 0.03 96 1014.5
20260903092441 76 158 3.0 4.0 0.02 0.02 0.02 95 1014.4
20260903091441 76 164 6.0 8.0 0.02 0.02 0.02 95 1014.6
20260903090442 76 155 2.0 2.0 0.00 0.00 0.00 94 1014.5
20260903085441 76 122 4.0 4.0 0.00 0.00 0.00 92 1014.5
20260903084442 76 97 8.0 9.0 0.00 0.00 0.00 91 1014.3
20260903083441 76 141 11.0 13.0 0.00 0.00 0.00 89 1014.2
20260903082501 76 162 4.0 4.0 0.00 0.00 0.00 89 1014.3
20260903081441 77 131 9.0 10.0 0.00 0.00 0.00 86 1014.2
20260903080441 78 127 9.0 10.0 0.00 0.00 0.00 81 1014.5
20260903075500 78 143 8.0 10.0 0.00 0.00 0.00 82 1014.1
20260903074440 78 138 10.0 11.0 0.00 0.00 0.00 81 1014.2
20260903073441 78 78 6.0 7.0 0.00 0.00 0.00 80 1014.2
20260903072440 79 90 11.0 14.0 0.00 0.00 0.00 79 1014.4
20260903071440 79 116 14.0 16.0 0.00 0.00 0.00 77 1014.2
20260903070501 80 115 14.0 17.0 0.00 0.00 0.00 76 1014.5
20260903065441 80 107 9.0 10.0 0.00 0.00 0.00 75 1014.4
20260903064602 80 92 8.0 9.0 0.00 0.00 0.00 74 1014.5
20260903063441 80 82 3.0 3.0 0.00 0.00 0.00 74 1014.4
20260903062441 80 98 5.0 6.0 0.00 0.00 0.00 74 1014.3
20260903061440 80 90 2.0 3.0 0.00 0.00 0.00 74 1014.6
20260903060440 80 151 4.0 4.0 0.00 0.00 0.00 74 1014.9
20260903055500 80 80 6.0 8.0 0.00 0.00 0.00 74 1014.8
20260903054501 80 100 5.0 7.0 0.00 0.00 0.00 73 1015.0
20260903053441 80 86 8.0 11.0 0.00 0.00 0.00 73 1015.1
20260903052440 80 88 5.0 6.0 0.00 0.00 0.00 72 1015.0
20260903051500 80 113 10.0 11.0 0.00 0.00 0.00 71 1015.3
20260903050441 81 98 6.0 7.0 0.00 0.00 0.00 70 1015.4
20260903045441 81 107 15.0 17.0 0.00 0.00 0.00 69 1015.3
20260903044440 82 161 10.0 13.0 0.00 0.00 0.00 68 1015.3
20260903043501 82 114 8.0 9.0 0.00 0.00 0.00 66 1015.2
20260903042440 82 191 12.0 15.0 0.00 0.00 0.00 66 1015.1
20260903041440 83 102 6.0 9.0 0.00 0.00 0.00 63 1015.3
20260903040441 83 133 7.0 10.0 0.00 0.00 0.00 62 1015.2
20260903035442 83 82 5.0 6.0 0.00 0.00 0.00 62 1015.3
20260903034441 84 114 8.0 9.0 0.00 0.00 0.00 62 1015.1
20260903033441 84 84 5.0 6.0 0.00 0.00 0.00 61 1015.1
20260903032441 85 107 6.0 8.0 0.00 0.00 0.00 60 1015.3
20260903031440 85 150 14.0 16.0 0.00 0.00 0.00 59 1015.2
20260903030441 85 146 9.0 9.0 0.00 0.00 0.00 60 1015.0
20260903025441 86 149 4.0 6.0 0.00 0.00 0.00 58 1014.8
20260903024501 87 159 12.0 13.0 0.00 0.00 0.00 56 1014.9
20260903023441 87 117 7.0 9.0 0.00 0.00 0.00 55 1014.8
20260903022441 87 151 8.0 9.0 0.00 0.00 0.00 55 1014.6
20260903021441 88 95 10.0 13.0 0.00 0.00 0.00 53 1014.4
20260903020501 89 113 5.0 6.0 0.00 0.00 0.00 52 1014.2
20260903015442 89 162 11.0 13.0 0.00 0.00 0.00 51 1014.1
20260903014442 89 135 4.0 6.0 0.00 0.00 0.00 51 1013.7
20260903013441 89 97 5.0 6.0 0.00 0.00 0.00 50 1013.6
20260903012441 90 130 4.0 6.0 0.00 0.00 0.00 50 1013.6
20260903011441 90 110 5.0 6.0 0.00 0.00 0.00 50 1013.6
20260903010440 90 108 5.0 5.0 0.00 0.00 0.00 49 1013.6
20260903005441 91 112 4.0 6.0 0.00 0.00 0.00 49 1013.6
20260903004441 91 97 6.0 7.0 0.00 0.00 0.00 48 1013.4
20260903003441 91 134 3.0 3.0 0.00 0.00 0.00 49 1013.5
20260903002441 92 160 3.0 3.0 0.00 0.00 0.00 48 1013.3
20260903001501 92 138 5.0 6.0 0.00 0.00 0.00 49 1013.3
20260903000441 91 150 5.0 6.0 0.00 0.00 0.00 50 1013.4
20260902235440 91 146 4.0 4.0 0.00 0.00 0.00 51 1013.3
20260902234440 91 146 4.0 4.0 0.00 0.00 0.00 51 1013.2
20260902233440 92 144 5.0 7.0 0.00 0.00 0.00 50 1013.2
20260902232440 93 120 5.0 6.0 0.00 0.00 0.00 46 1013.2
20260902231440 94 179 11.0 13.0 0.00 0.00 0.00 44 1013.0
20260902230440 98 89 15.0 16.0 0.00 0.00 0.00 39 1013.0
20260902225440 97 88 6.0 7.0 0.00 0.00 0.00 37 1012.9
20260902224501 97 88 9.0 10.0 0.00 0.00 0.00 36 1012.9
20260902223441 97 113 13.0 16.0 0.00 0.00 0.00 37 1012.7
20260902222440 98 58 7.0 11.0 0.00 0.00 0.00 37 1013.0
20260902221440 97 95 6.0 8.0 0.00 0.00 0.00 36 1013.0
20260902220440 97 95 9.0 10.0 0.00 0.00 0.00 37 1013.1
20260902215642 97 150 4.0 6.0 0.00 0.00 0.00 36 1013.0
20260902214040 98 69 4.0 6.0 0.00 0.00 0.00 36 1013.1
20260902213040 98 59 7.0 8.0 0.00 0.00 0.00 35 1013.4
20260902212041 97 119 1.0 2.0 0.00 0.00 0.00 37 1013.5
20260902211101 97 67 6.0 7.0 0.00 0.00 0.00 36 1013.3
20260902210041 96 57 11.0 11.0 0.00 0.00 0.00 37 1013.5
20260902205041 97 84 7.0 8.0 0.00 0.00 0.00 37 1013.8
20260902204041 96 83 5.0 6.0 0.00 0.00 0.00 38 1014.1
20260902203041 96 92 8.0 9.0 0.00 0.00 0.00 37 1014.0
20260902202041 97 96 13.0 16.0 0.00 0.00 0.00 37 1014.4
20260902201040 95 81 5.0 7.0 0.00 0.00 0.00 39 1014.7
20260902195041 96 59 3.0 4.0 0.00 0.00 0.00 39 1014.7
20260902194041 96 42 4.0 6.0 0.00 0.00 0.00 38 1014.6
20260902193041 95 106 2.0 3.0 0.00 0.00 0.00 39 1015.1
20260902192101 95 106 4.0 4.0 0.00 0.00 0.00 39 1015.1
20260902191040 95 75 5.0 7.0 0.00 0.00 0.00 41 1015.3
20260902190041 94 85 6.0 8.0 0.00 0.00 0.00 42 1015.5
20260902185120 94 74 3.0 3.0 0.00 0.00 0.00 43 1015.6
20260902184040 95 145 7.0 7.0 0.00 0.00 0.00 42 1015.8
20260902183040 95 91 6.0 8.0 0.00 0.00 0.00 44 1016.1
20260902182040 93 186 6.0 9.0 0.00 0.00 0.00 45 1016.1
20260902181040 93 170 7.0 8.0 0.00 0.00 0.00 46 1016.4
20260902180041 93 93 5.0 7.0 0.00 0.00 0.00 46 1016.8
20260902175041 91 185 3.0 3.0 0.00 0.00 0.00 48 1017.0
20260902174101 91 135 10.0 11.0 0.00 0.00 0.00 49 1017.0
20260902173041 91 128 8.0 9.0 0.00 0.00 0.00 51 1017.0
20260902172041 90 122 3.0 6.0 0.00 0.00 0.00 50 1017.3
20260902171041 90 112 7.0 10.0 0.00 0.00 0.00 52 1017.4
20260902170041 90 141 9.0 9.0 0.00 0.00 0.00 53 1017.6
20260902165041 90 155 2.0 3.0 0.00 0.00 0.00 54 1017.9
20260902164041 89 140 6.0 7.0 0.00 0.00 0.00 54 1017.9
20260902163040 88 165 4.0 6.0 0.00 0.00 0.00 56 1018.0
20260902162041 88 160 8.0 9.0 0.00 0.00 0.00 58 1018.1
20260902161040 87 159 4.0 6.0 0.00 0.00 0.00 58 1018.0
20260902160040 86 119 4.0 4.0 0.00 0.00 0.00 63 1018.0
20260902155041 86 88 9.0 11.0 0.00 0.00 0.00 62 1018.1
20260902154041 86 149 5.0 8.0 0.00 0.00 0.00 63 1018.1
20260902153041 86 184 4.0 6.0 0.00 0.00 0.00 63 1018.1
20260902152040 87 91 2.0 3.0 0.00 0.00 0.00 64 1018.1
20260902151040 86 102 4.0 4.0 0.00 0.00 0.00 66 1018.0
20260902150042 84 100 6.0 7.0 0.00 0.00 0.00 67 1017.9
20260902145041 84 136 5.0 6.0 0.00 0.00 0.00 68 1017.9
20260902144041 84 122 6.0 7.0 0.00 0.00 0.00 68 1017.9
20260902143040 84 102 4.0 4.0 0.00 0.00 0.00 69 1017.7
20260902142041 84 109 5.0 5.0 0.00 0.00 0.00 68 1018.0
20260902141041 83 75 2.0 2.0 0.00 0.00 0.00 69 1017.9
20260902140041 82 131 2.0 3.0 0.00 0.00 0.00 70 1017.7
20260902135041 82 95 6.0 7.0 0.00 0.00 0.00 70 1017.9
20260902134041 82 104 7.0 8.0 0.00 0.00 0.00 70 1017.6
20260902133121 82 112 5.0 7.0 0.00 0.00 0.00 71 1017.6
20260902132041 81 105 5.0 6.0 0.00 0.00 0.00 72 1017.6
20260902131101 81 99 3.0 3.0 0.00 0.00 0.00 73 1017.6
20260902130041 80 82 2.0 2.0 0.00 0.00 0.00 75 1017.5